STARLINK-3786, 52263

Orbit data source: Space-Track

STARLINK-3786, 52263 is a payload satellite owned by SpaceX/Seattle (US) in LEO that was launched on Thu, 21 Apr 2022 UTC via an FALCON 9 launch vehicle from the Air Force Eastern Test Range (AFETR). Payload-class satellites include a variety of spacecraft equipped with specific instruments for various scientific and technological missions. These include communications satellites like Starlink; space stations such as the ISS; scientific satellites like the Hubble; Earth observation satellites from companies like Planet Labs, Umbra, and HawkEye 360; GPS; miniature CubeSats for education and research; and military/defense satellites.

Loading next visibility...
Identifier
52263, 2022-041C
Orbit
LEO
Country
Flag of USUS
Related business
Manufacturer
SpaceX/Seattle
Mission
Operational Commercial Communications
Bus & Motor
STARLINK, Unknown motor
Mass
297 kg wet, ~275 kg dry
Launch date (UTC)
2022-04-21 (4 years ago)
Launch vehicle
FALCON 9
Launch site
Air Force Eastern Test Range (AFETR)
Object type
Payload
Rocket body
Debris
Shape & HBR
Box + 1 Pan, 10.1 m
Radar Cross Section
11.087 m², Large (>1 m²)

Expand to show TLE details & history
Last TLE update: 11 hours ago

TLE from 11 hours ago
0 STARLINK-3786
1 52263U 22041C   26254.53497604 -.00000452  00000-0 -24115-5 0  9995
2 52263  53.1627 349.4895 0001466  74.3366 285.7798 15.33548519242482
Epoch: 2026-09-11T12:50Z
TLE epoch observation values (Epoch: 2026-09-11T12:50:21.929Z)
Latitude
-0.00004°
Longitude
166.34116°
Altitude
465.864 km
Speed
7.635 km/s
True Right ascension
23h 17m 57s
True Declination
0° 00' 00"
Sunlit
Object was in full shadow at epoch
Visualization orbit readout
Latitude
Unknown
Longitude
Unknown
Altitude
Unknown
Speed
Unknown
Apparent Right ascension
Unknown
Apparent Declination
Unknown
Sunlit
N/A
Visualization observer readout
Local Sidereal Time
15:54:08
Azimuth
Unknown
Elevation
Unknown
Doppler factor
Unknown
Orbital elements
Apogee altitude
466.495 km
Perigee altitude
464.488 km
Semi-major axis
6,843.629 km
Eccentricity
0.00015
Inclination
53.1627°
RAAN
349.4895°
Arg. of periapsis
74.3366°
True anomaly
285.76363°
Mean anomaly
285.7798°
Eccentric anomaly
285.77172°
Mean motion
3.83366 °/min
Orbital period
93.91 mins
BSTAR
-0.0000024115
Loading maneuver chart data...
Computing Atmospheric mass density...
Loading historical data...
Loading historical data...
Loading historical data...
Loading historical data...
Loading historical data...
Loading historical data...
Loading historical data...

Documentation

Showing up to 5 results
|